TimePST,TemperatureF,Dew PointF,Humidity,Sea Level PressureIn,VisibilityMPH,Wind Direction,Wind SpeedMPH,Gust SpeedMPH,PrecipitationIn,Events,Conditions,WindDirDegrees,DateUTC
12:58 AM,49.3,21.4,33,29.92,10.0,NE,6.9,-,N/A,,Clear,40,2012-12-09 08:58:00
1:58 AM,49.3,22.3,35,29.95,10.0,East,11.5,-,N/A,,Clear,80,2012-12-09 09:58:00
2:58 AM,50.0,22.3,34,29.95,10.0,East,11.5,-,N/A,,Clear,80,2012-12-09 10:58:00
3:58 AM,50.9,20.8,31,29.95,10.0,East,11.5,-,N/A,,Clear,80,2012-12-09 11:58:00
4:58 AM,50.7,19.8,30,29.97,10.0,ENE,13.8,-,N/A,,Clear,70,2012-12-09 12:58:00
5:58 AM,48.2,20.3,33,30.00,10.0,East,9.2,-,N/A,,Clear,90,2012-12-09 13:58:00
6:58 AM,46.2,20.3,36,30.03,10.0,NNE,4.6,-,N/A,,Clear,30,2012-12-09 14:58:00
7:58 AM,52.5,20.8,29,30.06,10.0,ENE,12.7,17.3,N/A,,Clear,60,2012-12-09 15:58:00
8:58 AM,54.5,21.4,28,30.11,10.0,ENE,18.4,-,N/A,,Clear,70,2012-12-09 16:58:00
9:58 AM,54.5,21.2,27,30.14,6.0,NE,21.9,32.2,N/A,,Haze,50,2012-12-09 17:58:00
10:58 AM,56.1,21.0,26,30.15,10.0,NE,26.5,-,N/A,,Clear,50,2012-12-09 18:58:00
11:58 AM,57.2,21.0,25,30.13,10.0,NE,25.3,31.1,N/A,,Clear,40,2012-12-09 19:58:00
12:58 PM,58.6,20.8,23,30.13,10.0,NE,20.7,-,N/A,,Clear,40,2012-12-09 20:58:00
1:58 PM,59.2,20.7,23,30.13,10.0,NE,20.7,26.5,N/A,,Clear,40,2012-12-09 21:58:00
2:58 PM,59.4,20.8,23,30.15,10.0,NNE,20.7,-,N/A,,Clear,30,2012-12-09 22:58:00
3:58 PM,56.1,19.0,24,30.16,10.0,ENE,17.3,-,N/A,,Clear,60,2012-12-09 23:58:00
4:58 PM,53.4,18.1,25,30.19,10.0,NE,18.4,-,N/A,,Clear,50,2012-12-10 00:58:00
5:58 PM,51.3,17.8,27,30.21,10.0,NE,18.4,-,N/A,,Clear,40,2012-12-10 01:58:00
6:58 PM,49.8,17.8,28,30.24,10.0,NE,16.1,-,N/A,,Clear,50,2012-12-10 02:58:00
7:58 PM,48.0,17.4,30,30.27,10.0,NE,16.1,-,N/A,,Clear,40,2012-12-10 03:58:00
8:58 PM,46.9,17.8,31,30.27,10.0,NE,8.1,-,N/A,,Clear,40,2012-12-10 04:58:00
9:58 PM,44.8,17.8,34,30.29,10.0,NE,12.7,-,N/A,,Clear,50,2012-12-10 05:58:00
10:58 PM,42.8,17.8,37,30.30,10.0,NE,13.8,-,N/A,,Clear,50,2012-12-10 06:58:00
11:58 PM,44.4,17.8,34,30.30,10.0,NE,15.0,-,N/A,,Clear,40,2012-12-10 07:58:00